Regional Weather Roundup
Issued by NWS Sioux Falls, SD

Home | Current Version | Previous Version | Graphics & Text | Print | Product List | Glossary Off
Versions: 1 2 3 4 5 6 7 8 9 10 11 12 13 14 15 16 17 18 19 20 21 22 23 24 25 26 27 28 29 30 31 32 33 34 35 36 37 38 39 40 41 42 43 44 45 46 47 48 49 50

671
ASUS43 KFSD 030110
RWRFSD

WEATHER ROUNDUP FOR SE SOUTH DAKOTA/SW MINNESOTA/NW IOWA
NATIONAL WEATHER SERVICE SIOUX FALLS SD
800 PM CDT MON MAY 02 2016

NOTE: "FAIR" INDICATES FEW OR NO CLOUDS BELOW 12,000 FEET WITH NO
SIGNIFICANT WEATHER AND OR OBSTRUCTIONS TO VISIBILITY.


SDZ038>040-050-052>070-030200-
SOUTHEAST SOUTH DAKOTA

CITY           SKY/WX    TMP DP  RH WIND       PRES   REMARKS
BROOKINGS      CLEAR     59  36  42 SW7       29.99S
CHAMBERLAIN    CLOUDY    56  51  83 SE5       30.00S
HURON          CLOUDY    57  43  59 W7        30.00R
MADISON        FAIR      57  37  47 SW8       30.01R
MITCHELL       PTCLDY    55  46  71 SW6       30.01R
SIOUX FALLS    MOCLDY    57  39  51 S9        30.01S
WINNER         CLOUDY    55  46  71 E5        30.01R
YANKTON        PTCLDY    61  39  44 SE5       30.01S
$$

MNZ071-072-080-081-089-090-097-098-030200-
SOUTHWEST MINNESOTA

CITY           SKY/WX    TMP DP  RH WIND       PRES   REMARKS
FAIRMONT       CLEAR     61  37  41 SW5       30.02S
JACKSON        CLEAR     59  34  38 S5        30.03S
LUVERNE        CLEAR     55  37  50 SW6       30.02S
MARSHALL       CLEAR     63  36  36 SW8       29.99S
MONTEVIDEO     PTCLDY    63  30  29 CALM      30.00S
PIPESTONE      CLEAR     57  41  54 SW5       30.01S
REDWOOD FALLS  CLEAR     62  33  33 S6        29.99S
TRACY          CLEAR     60  38  44 S5        30.00S
WINDOM         CLEAR     61  34  36 CALM      30.01S
WORTHINGTON      N/A     60  39  45 CALM      30.02S
$$

IAZ001>003-012>014-020>022-031-032-NEZ013-014-SDZ071-030200-
NORTHWEST IOWA

CITY           SKY/WX    TMP DP  RH WIND       PRES   REMARKS
CHEROKEE       PTCLDY    56  41  57 CALM      30.03S
DENISON        CLEAR     59  41  51 CALM      30.02S
ESTHERVILLE    CLEAR     58  43  57 SW3       30.02S
LE MARS        CLEAR     59  39  47 CALM      30.03F
ORANGE CITY    CLEAR     57  43  58 SW5       30.02F
SHELDON        CLEAR     57  37  47 SW5       30.01S
SIOUX CITY     CLEAR     60  44  55 S5        30.03S
SPENCER        CLEAR     58  42  55 CALM      30.02F
STORM LAKE     CLEAR     57  39  51 CALM      30.04S
$$

ABBREVIATIONS USED IN REMARKS
   TC - TEMPERATURE IN CELSIUS
  WCI - WIND CHILL INDEX
   HX - HEAT INDEX
  VSB - VISIBILITY





USA.gov is the U.S. government's official web portal to all federal, state and local government web resources and services.